Charleston, WV

12:50 PM EST on December 09, 2019 (GMT -0500)
Yeager Airport

Weather History for KCRW - June, 2019

Change the Weather History Date:

Monday, June 10, 2019

  Actual Average Record
Temperature  
Mean Temperature 72 °F 71 °F  
Max Temperature 80 °F 81 °F 98 °F (1999)
Min Temperature 63 °F 60 °F 42 °F (1977)
Degree Days  
Heating Degree Days 0 1  
Month to date heating degree days 2 10  
Since 1 June heating degree days 2 10  
Since 1 July heating degree days 4146 4475  
Cooling Degree Days 7 6  
Month to date cooling degree days 52 53  
Year to date cooling degree days 248 163  
Since 1 June cooling degree days 52 53  
Growing Degree Days 23 (Base 50)    
Moisture  
Dew Point 65 °F    
Average Humidity 78    
Maximum Humidity 93    
Minimum Humidity 63    
Precipitation  
Precipitation 0.31 in 0.15 in 1.71 in (1982)
Month to date precipitation 1.21 1.52  
Year to date precipitation 23.44 19.66  
Sea Level Pressure  
Sea Level Pressure 29.94 in    
Wind  
Wind Speed 7 mph (West)    
Max Wind Speed 20 mph    
Max Gust Speed 31 mph    
Visibility 9 miles    
Events Rain , Thunderstorm    
T = Trace of Precipitation, MM = Missing Value Source: NWS Daily Summary

Daily Weather History Graph

Daily Weather History Graph

Search for Another Location

Airport or City:

Astronomy

Jun. 10, 2019 Rise Set
Actual Time 6:02 AM EDT 8:49 PM EDT
Civil Twilight 5:30 AM EDT 9:21 PM EDT
Nautical Twilight 4:51 AM EDT 10:00 PM EDT
Astronomical Twilight 4:06 AM EDT 10:45 PM EDT
Moon 1:45 PM EDT (6/10) 2:06 AM EDT (6/10)
Length of Visible Light 15h 50m
Length of Day
14h 47m
First Quarter, 55% of the Moon is Illuminated
Jun 10
First Quarter
Jun 17
Full
Jun 25
Last Quarter
Jul 2
New
Jul 9
First Quarter

Hourly Weather History & Observations

Time (EDT) Temp. Dew Point Humidity Pressure Visibility Wind Dir Wind Speed Gust Speed Precip Events Conditions
12:54 AM 71.1 °F 64.9 °F 81% 29.95 in 10.0 mi NNE 3.5 mph - N/A   Mostly Cloudy
1:54 AM 69.1 °F 64.0 °F 84% 29.94 in 10.0 mi East 3.5 mph - N/A   Partly Cloudy
2:54 AM 68.0 °F 64.9 °F 90% 29.91 in 10.0 mi ENE 4.6 mph - N/A   Scattered Clouds
3:54 AM 66.9 °F 64.9 °F 93% 29.90 in 10.0 mi NE 3.5 mph - N/A   Scattered Clouds
4:54 AM 66.0 °F 64.0 °F 93% 29.90 in 10.0 mi Calm Calm - N/A   Scattered Clouds
5:54 AM 66.9 °F 64.0 °F 90% 29.91 in 10.0 mi Calm Calm - N/A   Mostly Cloudy
6:54 AM 66.9 °F 64.9 °F 93% 29.92 in 10.0 mi Calm Calm - N/A   Mostly Cloudy
7:54 AM 70.0 °F 66.9 °F 90% 29.92 in 10.0 mi Calm Calm - N/A   Mostly Cloudy
8:54 AM 73.9 °F 66.0 °F 76% 29.92 in 10.0 mi SSE 3.5 mph - N/A   Overcast
9:54 AM 75.0 °F 66.9 °F 76% 29.91 in 10.0 mi South 9.2 mph - N/A   Overcast
10:54 AM 75.9 °F 68.0 °F 76% 29.91 in 10.0 mi South 5.8 mph - 0.00 in   Overcast
11:44 AM 78.1 °F 68.0 °F 71% 29.94 in 10.0 mi SSW 9.2 mph - N/A   Overcast
11:54 AM 78.1 °F 68.0 °F 71% 29.91 in 10.0 mi SSW 8.1 mph - N/A   Overcast
12:54 PM 73.9 °F 71.1 °F 91% 29.90 in 7.0 mi WSW 5.8 mph - 0.05 in Rain Light Rain
1:17 PM 77.0 °F 71.1 °F 82% 29.91 in 10.0 mi WSW 4.6 mph - 0.00 in   Overcast
1:54 PM 78.1 °F 69.1 °F 74% 29.87 in 10.0 mi WSW 6.9 mph - 0.00 in   Overcast
2:35 PM 78.1 °F 70.0 °F 76% 29.89 in 10.0 mi SW 8.1 mph - N/A Thunderstorm Thunderstorm
2:54 PM 78.1 °F 70.0 °F 76% 29.86 in 10.0 mi South 11.5 mph - N/A Thunderstorm Thunderstorm
3:25 PM 75.0 °F 69.1 °F 82% 29.91 in 0.2 mi West 17.3 mph 31.1 mph 0.00 in Rain , Thunderstorm Heavy Thunderstorms and Rain
3:35 PM 72.0 °F 69.1 °F 91% 29.91 in 5.0 mi WSW 6.9 mph 16.1 mph 0.23 in Rain , Thunderstorm Light Thunderstorms and Rain
3:54 PM 71.1 °F 68.0 °F 90% 29.90 in 4.0 mi WNW 12.7 mph 24.2 mph 0.25 in Rain , Thunderstorm Light Thunderstorms and Rain
4:43 PM 71.1 °F 68.0 °F 90% 29.94 in 6.0 mi WNW 11.5 mph 18.4 mph 0.01 in   Overcast
4:54 PM 71.1 °F 66.9 °F 87% 29.92 in 6.0 mi NW 6.9 mph - 0.01 in   Overcast
5:25 PM 73.0 °F 66.9 °F 81% 29.95 in 10.0 mi WNW 5.8 mph - N/A   Mostly Cloudy
5:54 PM 75.9 °F 68.0 °F 76% 29.93 in 10.0 mi NW 4.6 mph - N/A   Mostly Cloudy
6:54 PM 73.0 °F 66.0 °F 79% 29.94 in 10.0 mi West 8.1 mph - 0.00 in   Mostly Cloudy
7:16 PM 75.0 °F 66.0 °F 73% 29.96 in 10.0 mi NW 5.8 mph - N/A   Mostly Cloudy
7:54 PM 72.0 °F 62.1 °F 71% 29.97 in 10.0 mi NW 12.7 mph 24.2 mph N/A   Mostly Cloudy
8:54 PM 69.1 °F 59.0 °F 70% 30.00 in 10.0 mi NW 12.7 mph 23.0 mph N/A   Mostly Cloudy
9:54 PM 68.0 °F 55.9 °F 65% 30.05 in 10.0 mi NW 15.0 mph 24.2 mph N/A   Mostly Cloudy
10:54 PM 66.0 °F 55.9 °F 70% 30.08 in 10.0 mi NW 9.2 mph - N/A   Overcast
11:54 PM 64.9 °F 54.0 °F 68% 30.10 in 10.0 mi NW 5.8 mph - N/A   Overcast